Wind_Speed
12 12 12 12 13 14 13 12 12 12 10 9 7 7 6 6 5 2 2 2 2 3 3 4 4 5 8 8 10 15 14 11 6 7 6 7 3 5 6 10 12 14 13 12 8
12 12 13 12 13 12 10 10 9 8 7 6 5 4 3 4 2 1 1 1 0 1 2 2 2 5 7 8 11 15 16 10 6 7 2 1 1 4 3 9 13 8 10 9 9
12 12 12 11 10 9 8 7 7 6 5 4 4 2 4 5 4 3 4 3 2 2 3 3 3 4 6 6 8 11 14 13 7 5 5 4 4 5 2 4 8 7 11 9 8
11 12 10 9 6 5 5 4 4 4 4 4 4 3 5 5 4 4 3 4 3 4 5 7 7 6 6 4 6 7 7 9 11 9 9 5 5 4 5 4 6 5 9 8 6
11 9 7 5 3 3 4 5 5 3 1 4 3 5 7 7 6 3 2 3 5 7 10 10 10 9 8 7 5 4 4 6 6 9 10 7 5 7 4 11 11 7 7 9 10
9 7 4 2 2 3 4 6 6 4 2 4 5 6 7 6 6 3 2 4 7 9 9 7 8 7 8 6 5 3 4 4 4 6 7 7 7 5 4 8 8 8 6 6 11
8 5 3 2 2 2 4 6 7 6 4 4 6 7 8 7 5 4 5 6 8 8 6 3 3 5 4 5 4 3 4 4 4 4 8 9 10 7 7 8 10 6 6 4 9
6 5 5 3 3 2 4 5 7 6 4 4 7 9 10 8 5 7 7 8 7 5 3 1 1 1 1 2 3 3 3 6 5 5 4 6 9 8 12 11 12 8 5 1 5
7 7 6 5 3 2 4 4 4 4 4 5 8 10 9 6 6 8 9 8 7 5 1 3 4 3 1 1 6 5 2 6 4 6 4 2 6 10 13 17 15 13 8 5 11
7 7 6 5 4 3 4 5 4 2 2 6 9 7 8 6 7 11 9 7 7 7 8 10 13 15 11 9 7 4 6 6 5 4 6 6 5 7 16 20 25 14 12 9 15
7 7 6 5 4 4 4 4 4 1 3 4 7 6 10 6 8 11 10 9 10 10 11 15 14 10 7 9 7 6 7 7 2 3 6 10 12 8 5 11 7 7 9 10 14
7 7 6 5 5 3 3 3 3 2 2 4 7 8 10 9 9 9 9 12 12 11 11 12 12 9 7 6 7 7 9 7 4 9 8 8 10 12 12 10 10 3 6 11 16
8 6 5 5 4 2 2 2 2 2 5 7 11 11 11 10 9 9 10 15 11 10 12 14 10 10 10 7 8 8 7 6 2 1 1 3 11 13 16 17 14 12 9 9 14
8 7 7 6 4 2 1 0 2 3 5 8 9 8 12 12 9 13 15 11 8 7 8 10 10 6 7 5 6 6 6 4 2 3 3 2 4 10 11 13 12 13 12 12 10
8 9 8 7 5 4 3 0 1 5 3 11 8 14 14 9 10 11 12 10 7 4 7 8 9 8 6 2 3 1 2 2 4 5 3 4 2 4 5 10 12 12 11 16 18
9 9 9 9 7 5 5 2 3 3 3 8 10 11 14 13 10 10 11 8 5 6 8 6 6 6 5 3 2 2 2 3 4 4 2 5 1 1 3 9 14 13 9 10 16
9 9 10 10 9 8 7 5 4 3 11 7 11 13 15 13 10 7 8 7 5 8 6 2 4 3 3 2 2 2 2 4 1 1 2 2 1 2 4 8 9 10 13 12 14
10 9 11 10 10 10 10 8 5 7 10 8 11 13 13 12 9 8 6 6 6 6 4 2 4 4 8 5 3 0 1 2 3 2 2 2 2 1 5 7 8 8 12 14 13
10 10 11 11 11 12 12 11 5 9 11 10 13 12 11 10 10 11 11 11 9 7 4 3 3 2 3 5 1 2 1 2 2 2 3 1 3 3 2 8 5 5 8 12 14
11 10 11 11 11 12 13 12 8 11 10 11 10 11 13 13 11 10 10 7 15 13 10 8 4 3 1 3 3 1 4 3 3 2 3 2 4 4 2 2 4 2 4 8 8
10 11 12 12 12 13 14 12 12 12 10 9 9 8 11 14 13 12 9 10 11 12 12 11 10 7 6 5 10 5 6 6 5 5 5 5 5 7 6 7 7 4 2 4 5
9 12 13 14 14 14 13 13 14 16 11 9 11 9 11 10 9 9 11 10 12 12 12 12 7 6 7 8 6 4 4 6 6 6 7 5 10 8 7 9 9 9 9 9 9
10 14 14 16 15 14 11 12 12 12 15 13 10 11 10 9 7 8 8 8 10 13 10 12 7 5 1 2 6 7 8 9 10 8 9 7 6 9 9 9 8 11 13 13 12
11 13 16 18 19 14 12 11 10 10 16 15 15 13 11 9 8 6 10 9 11 12 13 12 12 10 12 9 9 10 13 17 15 8 11 15 16 16 17 21 24 24 22 19 14
12 13 16 17 23 18 15 8 11 12 13 16 16 14 12 11 11 10 9 10 11 13 13 11 12 14 15 14 16 16 17 21 23 21 16 18 21 26 24 25 25 23 20 19 17
12 14 16 19 16 18 19 16 13 14 13 14 16 16 15 14 13 10 9 10 11 12 15 16 13 15 16 17 17 20 20 21 22 22 26 27 30 27 25 24 22 21 19 15 18
14 14 15 17 19 17 17 16 16 16 15 15 15 15 15 14 13 12 11 10 10 11 12 14 15 13 14 14 15 16 26 25 27 28 27 24 22 19 15 13 14 15 15 16 18
Wind_Direction
284 289 295 297 293 288 286 284 280 279 279 282 282 276 267 241 244 294 346 297 281 269 249 243 249 221 198 202 203 205 209 215 185 147 97 101 81 355 300 277 279 302 317 329 319
290 295 294 297 296 293 291 289 283 280 280 281 282 276 240 211 194 107 60 51 231 255 203 202 235 211 196 197 198 203 215 221 192 170 144 132 321 322 322 263 260 287 329 335 303
296 300 296 297 297 300 297 290 285 286 276 266 258 244 189 173 148 119 79 67 105 133 152 133 132 172 190 192 204 218 225 219 187 209 265 248 258 293 282 210 261 293 301 303 313
303 290 298 302 314 317 309 313 315 310 271 233 224 174 168 160 142 118 76 63 92 113 113 114 129 148 153 163 212 235 245 244 237 251 255 267 260 273 236 243 253 269 283 268 290
293 293 296 308 330 336 340 350 338 341 301 199 189 163 161 154 147 118 82 88 110 122 122 127 124 123 121 128 117 112 176 232 247 246 250 269 266 271 224 229 234 220 237 249 261
283 278 281 317 334 351 4 12 7 11 41 167 159 162 155 153 147 122 91 121 137 142 143 151 152 143 154 137 145 173 240 250 248 238 244 248 249 241 224 227 220 217 230 257 270
279 281 270 274 304 350 5 22 25 35 68 141 149 150 144 144 140 125 129 134 148 149 152 182 171 178 181 194 196 262 292 251 138 239 259 253 244 215 246 217 232 212 211 235 266
277 255 249 245 269 327 350 14 20 39 70 125 142 140 144 153 151 142 148 153 153 152 144 125 342 339 249 214 248 297 76 102 139 60 169 213 241 261 228 206 225 234 246 327 313
250 238 238 237 249 297 327 342 359 21 64 126 136 147 134 148 170 155 157 161 170 182 110 41 42 22 297 149 119 106 111 90 87 32 18 246 262 253 241 225 223 225 224 230 265
241 237 244 246 254 282 311 335 337 351 108 139 146 135 147 129 146 167 155 149 137 123 102 82 81 69 84 94 111 68 66 65 81 358 50 60 348 250 226 225 222 223 209 238 269
238 235 239 249 262 281 303 319 344 54 171 173 160 135 153 139 129 150 151 148 139 129 108 94 65 62 87 104 94 68 66 97 115 80 37 38 43 358 258 224 211 233 244 258 272
239 236 238 248 260 284 306 332 12 18 148 168 156 142 145 136 126 138 151 148 142 111 107 87 54 87 119 92 85 86 96 121 118 110 77 32 46 60 72 78 58 20 247 263 272
238 236 237 248 258 283 312 315 26 36 126 134 143 142 142 136 132 125 139 151 119 106 101 65 56 80 91 101 83 111 99 95 90 333 282 94 65 76 79 74 58 40 11 323 290
237 233 234 239 238 234 237 281 55 83 109 138 133 130 133 132 144 143 131 133 122 93 108 73 75 83 93 119 85 106 101 44 13 321 321 15 114 97 93 62 30 22 357 337 312
237 235 229 234 234 223 214 182 124 135 109 148 149 140 140 126 132 148 142 130 129 111 91 90 78 87 93 114 77 102 224 257 259 281 158 76 109 167 80 37 9 12 19 14 1
237 235 230 231 227 213 216 197 162 153 129 152 156 160 152 144 140 143 147 152 141 160 104 94 75 66 33 125 137 299 272 254 304 239 156 6 8 183 41 31 30 20 18 28 38
241 232 234 229 228 216 214 192 176 193 158 160 171 163 169 167 162 156 160 159 143 146 152 99 115 106 45 15 3 163 297 312 259 66 49 307 253 116 90 67 43 23 42 42 41
244 232 231 228 224 218 212 196 209 170 160 172 186 180 185 187 199 202 197 201 178 167 178 138 128 119 31 35 345 290 342 301 299 282 13 232 239 143 124 107 72 42 51 53 43
242 233 229 224 218 213 208 200 198 174 172 179 189 187 198 203 204 224 226 235 235 226 210 186 157 139 73 351 48 259 227 216 186 241 264 212 262 245 153 142 107 38 37 27 29
236 230 225 219 213 207 204 204 188 184 181 187 182 189 198 204 208 207 212 223 234 240 253 238 207 215 350 350 239 230 190 267 240 245 283 214 259 253 196 210 161 23 27 18 15
227 222 219 214 208 206 208 209 197 193 191 188 174 168 184 180 199 209 214 223 215 229 240 231 228 224 258 287 313 300 236 237 234 229 276 278 260 233 264 248 205 266 285 318 325
220 212 213 211 204 210 211 210 208 211 204 194 184 181 176 171 173 190 208 214 212 215 215 225 219 199 243 281 273 268 287 300 264 270 238 254 270 249 249 205 227 250 268 275 290
220 217 211 211 214 215 213 215 221 209 212 210 204 205 209 207 196 207 202 208 209 215 222 226 224 180 195 254 230 229 268 266 260 245 234 248 251 221 200 199 240 265 278 288 274
217 213 212 211 218 220 221 220 218 218 208 202 203 208 216 220 220 207 205 218 219 219 231 238 237 238 262 276 267 256 267 260 249 240 253 247 263 268 265 271 277 274 272 273 270
216 212 211 214 223 224 224 217 216 222 216 213 214 217 231 232 234 235 238 227 230 237 240 246 257 269 274 265 269 270 269 263 261 264 252 267 280 281 285 284 281 279 275 272 263
224 219 217 220 224 228 231 228 222 219 223 225 222 226 230 233 242 252 250 243 238 247 253 262 265 273 274 278 273 270 270 264 261 260 269 280 282 287 286 279 279 279 275 257 246
231 227 225 224 228 229 234 234 233 229 225 226 226 223 225 233 242 245 247 248 260 265 262 261 263 268 270 275 274 270 270 272 268 269 271 268 287 287 287 284 290 284 269 248 247
Height
3165 3164 3162 3162 3162 3162 3161 3160 3159 3159 3159 3159 3159 3159 3159 3159 3160 3161 3161 3162 3163 3163 3164 3165 3167 3169 3171 3173 3175 3177 3181 3182 3186 3187 3187 3186 3186 3186 3186 3185 3185 3185 3186 3186 3186
3162 3161 3161 3160 3160 3159 3158 3157 3157 3157 3157 3157 3157 3157 3157 3158 3159 3160 3161 3161 3161 3162 3163 3164 3166 3168 3171 3173 3174 3176 3179 3182 3185 3186 3186 3186 3186 3185 3186 3185 3184 3185 3186 3186 3186
3160 3159 3159 3159 3158 3157 3156 3156 3156 3155 3155 3155 3156 3156 3157 3158 3159 3160 3160 3161 3161 3162 3163 3164 3166 3169 3171 3173 3174 3175 3178 3181 3183 3184 3185 3186 3185 3185 3184 3185 3185 3185 3186 3186 3186
3157 3158 3157 3157 3156 3155 3155 3154 3154 3153 3153 3154 3155 3155 3156 3158 3161 3160 3160 3161 3161 3162 3164 3165 3167 3169 3171 3173 3174 3176 3177 3179 3182 3183 3184 3185 3184 3185 3184 3186 3185 3185 3185 3185 3186
3156 3156 3155 3155 3155 3155 3154 3153 3153 3153 3152 3153 3154 3155 3156 3158 3160 3160 3160 3161 3162 3163 3164 3166 3168 3170 3172 3173 3174 3176 3176 3177 3179 3181 3183 3184 3184 3183 3184 3184 3184 3184 3184 3184 3186
3155 3155 3154 3154 3155 3155 3154 3153 3153 3152 3151 3152 3153 3155 3156 3159 3159 3160 3161 3162 3163 3164 3165 3168 3170 3171 3172 3173 3175 3175 3176 3177 3178 3180 3181 3182 3182 3182 3183 3183 3183 3182 3183 3183 3184
3153 3152 3153 3153 3154 3154 3154 3154 3153 3152 3151 3152 3153 3155 3156 3159 3159 3160 3161 3163 3164 3165 3166 3168 3170 3172 3173 3174 3174 3175 3175 3175 3177 3178 3179 3179 3180 3180 3179 3181 3181 3181 3181 3181 3182
3150 3151 3152 3153 3154 3154 3154 3154 3153 3152 3152 3152 3154 3154 3156 3157 3159 3160 3162 3164 3165 3166 3168 3169 3170 3171 3172 3174 3174 3174 3175 3175 3176 3175 3175 3176 3177 3176 3177 3178 3179 3181 3180 3180 3180
3149 3150 3151 3152 3153 3154 3153 3153 3153 3152 3152 3153 3154 3156 3156 3157 3158 3160 3162 3163 3165 3167 3168 3169 3169 3170 3172 3173 3174 3174 3174 3174 3175 3174 3173 3174 3173 3172 3173 3175 3176 3177 3177 3177 3176
3149 3149 3150 3151 3152 3152 3152 3152 3153 3152 3152 3154 3155 3158 3158 3158 3157 3160 3162 3164 3165 3168 3170 3171 3171 3171 3172 3173 3174 3174 3174 3173 3173 3174 3172 3172 3170 3168 3168 3168 3169 3173 3174 3173 3173
3147 3148 3149 3150 3150 3150 3152 3153 3155 3154 3152 3153 3155 3155 3157 3158 3159 3160 3163 3165 3167 3169 3170 3171 3173 3173 3173 3174 3174 3174 3173 3173 3173 3172 3172 3170 3169 3166 3164 3167 3170 3171 3172 3171 3171
3145 3146 3147 3148 3149 3149 3150 3151 3151 3153 3151 3152 3153 3155 3157 3158 3160 3161 3163 3167 3168 3169 3171 3173 3172 3173 3173 3174 3174 3173 3173 3173 3173 3171 3172 3171 3169 3168 3168 3168 3168 3168 3167 3167 3168
3143 3145 3146 3147 3147 3148 3149 3150 3149 3150 3151 3152 3153 3155 3158 3160 3161 3162 3164 3167 3169 3170 3171 3172 3173 3173 3173 3174 3174 3174 3173 3173 3173 3172 3171 3171 3172 3171 3170 3169 3168 3167 3167 3166 3165
3142 3143 3144 3145 3149 3147 3148 3148 3148 3149 3151 3155 3155 3157 3158 3159 3162 3163 3164 3169 3169 3171 3171 3173 3173 3173 3173 3174 3174 3174 3173 3172 3172 3171 3171 3170 3173 3172 3171 3171 3169 3167 3165 3164 3162
3140 3141 3142 3144 3146 3147 3148 3147 3148 3149 3151 3156 3156 3157 3158 3161 3163 3164 3165 3167 3169 3171 3172 3175 3174 3173 3173 3174 3174 3174 3173 3172 3171 3170 3171 3171 3172 3172 3172 3172 3169 3167 3165 3162 3160
3138 3139 3140 3142 3143 3145 3146 3147 3149 3151 3151 3153 3155 3156 3159 3160 3163 3164 3165 3168 3169 3170 3171 3174 3174 3173 3173 3173 3172 3172 3172 3171 3170 3170 3171 3172 3172 3171 3172 3171 3169 3167 3165 3162 3160
3134 3136 3138 3139 3141 3143 3145 3147 3149 3148 3150 3154 3154 3155 3158 3160 3162 3164 3165 3167 3168 3170 3172 3173 3173 3173 3173 3173 3172 3172 3172 3170 3170 3169 3170 3171 3172 3171 3172 3171 3169 3166 3164 3162 3161
3132 3133 3134 3136 3138 3141 3143 3146 3146 3145 3147 3150 3152 3154 3157 3159 3161 3163 3164 3166 3167 3168 3170 3172 3173 3173 3173 3173 3172 3171 3171 3171 3170 3169 3170 3171 3171 3171 3171 3170 3169 3166 3165 3163 3161
3129 3130 3132 3133 3136 3138 3142 3142 3142 3144 3146 3149 3150 3152 3154 3157 3160 3161 3162 3164 3166 3167 3170 3170 3171 3171 3171 3171 3172 3171 3171 3171 3170 3170 3171 3171 3171 3170 3170 3169 3169 3167 3165 3164 3162
3125 3127 3129 3131 3133 3136 3139 3139 3141 3143 3144 3147 3147 3149 3151 3154 3158 3159 3160 3161 3163 3164 3166 3168 3170 3170 3170 3170 3170 3169 3171 3171 3170 3169 3167 3168 3168 3168 3168 3168 3167 3166 3165 3164 3162
3123 3124 3126 3128 3131 3134 3135 3137 3140 3141 3143 3146 3145 3147 3149 3151 3154 3156 3157 3160 3160 3161 3163 3165 3167 3169 3168 3168 3167 3168 3167 3168 3168 3167 3165 3164 3164 3164 3165 3165 3165 3165 3164 3163 3162
3119 3122 3124 3125 3130 3130 3132 3134 3136 3138 3141 3143 3144 3145 3147 3149 3151 3153 3154 3156 3157 3158 3161 3163 3164 3164 3165 3164 3164 3164 3165 3165 3165 3165 3163 3163 3163 3160 3161 3162 3162 3162 3161 3161 3160
3116 3119 3121 3123 3125 3127 3130 3131 3133 3136 3138 3140 3142 3144 3145 3147 3150 3151 3152 3153 3154 3156 3157 3159 3160 3162 3162 3164 3162 3161 3161 3161 3161 3160 3160 3160 3159 3158 3158 3158 3158 3157 3156 3156 3155
3115 3117 3118 3119 3122 3124 3127 3129 3131 3133 3135 3137 3139 3141 3143 3145 3147 3148 3150 3152 3153 3154 3154 3155 3156 3157 3158 3158 3159 3159 3158 3157 3157 3157 3155 3154 3155 3155 3155 3154 3153 3151 3150 3150 3149
3111 3111 3113 3114 3118 3120 3124 3127 3128 3130 3132 3134 3137 3138 3140 3143 3144 3145 3148 3149 3150 3150 3151 3153 3152 3153 3154 3154 3154 3154 3153 3152 3151 3151 3150 3150 3147 3149 3148 3146 3145 3144 3143 3143 3143
3106 3108 3110 3112 3113 3115 3120 3122 3126 3128 3130 3132 3134 3135 3137 3140 3141 3142 3144 3145 3146 3147 3148 3149 3148 3149 3149 3149 3149 3147 3146 3145 3145 3145 3143 3142 3140 3141 3140 3138 3138 3137 3137 3137 3136
3102 3104 3106 3107 3109 3112 3116 3118 3121 3124 3127 3128 3131 3132 3134 3136 3137 3138 3140 3141 3142 3142 3143 3144 3144 3145 3144 3144 3143 3140 3136 3136 3137 3136 3137 3135 3135 3133 3133 3133 3133 3131 3131 3131 3132